GFSNE_prec_radar_231.txt.gz
Reflectivity
-20 -20 -20 -20 -6 21 31 27 34 26 -2 -20 -16 -10 14 10 -13 9 6 9 -3 25 18 28 25 23 27 23 17 15 27 18 23 12 10 10 0 14
-20 -20 -20 -20 -20 -17 24 29 19 24 22 -18 -19 -20 4 16 -2 13 2 -14 -1 20 29 26 29 27 26 25 28 24 28 16 16 31 11 4 9 -5
-20 -20 -20 -20 -20 -19 23 18 18 1 5 -20 -13 -19 -20 -5 -20 13 3 -6 -14 -8 -0 29 27 32 27 28 27 28 27 24 12 6 -7 -20 4 -20
-20 -20 -20 -20 -20 -20 -20 2 6 9 2 -20 -20 -19 -18 -20 -19 7 1 6 -1 -10 2 7 20 30 30 29 34 31 28 30 26 21 3 21 13 3
-20 -20 -20 -20 -20 -20 -20 -20 -4 3 6 -11 -20 -20 -20 -18 -10 -20 13 -15 -5 -14 -4 -9 9 24 26 31 35 33 29 30 31 22 20 -17 9 6
-20 16 -13 -20 -20 -20 -20 -20 -16 8 17 6 -20 -20 -20 -20 13 3 -8 11 12 6 12 -2 23 29 27 28 35 33 32 27 25 30 -1 -20 -20 -20
-20 -3 3 -13 11 -20 -20 -20 -15 -3 3 3 -17 -20 -20 -20 13 -18 8 13 -9 -1 13 -4 15 28 31 30 29 33 28 31 27 25 1 -5 -20 -20
23 -4 -20 -20 -20 -20 -17 -20 -20 -20 4 5 -17 -20 -20 -20 -20 -20 6 23 19 3 21 14 20 32 27 34 31 29 26 29 28 20 13 -15 -20 -0
-20 -20 -20 -20 -4 -20 -9 8 -14 -19 1 -5 -20 -17 -20 -20 -19 -4 6 13 11 24 17 31 26 26 28 32 34 28 26 31 33 29 13 -19 -17 -7
-20 -20 -20 -20 -6 -5 -20 16 4 -20 -20 -20 -20 -20 -20 -15 -16 -2 28 31 30 31 24 25 24 24 34 32 34 37 36 35 32 26 -4 -4 2 12
-20 -20 -20 -20 15 15 -2 -15 -20 -20 -2 -18 -20 -20 -20 -20 -18 25 30 19 20 25 24 21 25 26 28 32 37 40 39 36 26 3 5 -5 5 7
-20 -20 -1 4 13 13 3 -20 -20 -20 4 -20 -18 8 8 2 18 29 27 17 16 23 23 21 24 24 26 33 32 39 38 33 23 15 -10 -1 5 -11
-6 -9 -19 -1 2 13 15 -4 -12 -6 -2 -19 -20 -20 -7 10 32 32 34 24 16 15 14 16 19 23 21 26 25 25 33 26 20 7 2 3 6 -8
-18 -5 18 19 14 14 10 10 12 14 -18 -20 -20 -8 0 21 22 23 23 24 17 4 18 27 18 18 19 24 24 23 22 11 -17 -12 -5 1 5 -0
-11 14 20 17 20 11 20 15 -3 -15 -16 -2 10 6 20 22 17 13 14 13 9 22 23 16 12 18 17 14 10 13 13 17 8 -8 -3 3 -8 -10
13 2 -11 -20 8 6 -5 -1 -16 -11 1 13 13 17 21 17 3 -19 -15 0 -1 11 14 12 14 14 16 18 15 15 6 1 -1 -19 -20 -20 -20 -20
-13 -18 -20 -20 -17 -18 -17 -19 -14 17 16 17 17 21 19 10 7 5 -1 -0 7 12 13 15 13 12 16 6 10 5 5 -4 1 -13 -20 -20 -20 -20
-17 -20 -20 -20 -18 -18 -20 -17 8 15 18 17 20 20 15 5 -6 1 1 1 1 5 2 3 2 -2 -9 8 8 -19 -20 -20 -20 -20 -20 -20 -20 -20
-15 -20 -20 -20 -20 -20 -20 8 11 15 17 16 19 17 10 1 -14 -20 -7 -20 -11 -20 -20 -20 -20 -20 -20 -20 -14 3 -20 -20 -20 -20 -20 -20 -20 -20
-20 -17 -20 -20 -20 -20 -20 -3 11 12 15 14 16 12 3 -20 -20 -20 -20 -20 -20 -20 -16 -3 -13 -20 -20 -20 -20 -20 -20 -20 -20 -20 -20 -20 -20 -20
-20 -20 -20 -20 -20 -20 -20 4 7 5 8 7 8 6 -19 -20 -20 -20 -20 -20 -20 -20 -20 -20 -20 -20 -20 -20 -20 -20 -20 -20 -20 -20 -20 -20 -20 -20
-20 -20 -20 -20 -20 -20 -16 -1 -1 -19 -19 -12 4 6 -17 -20 -20 -20 -20 -20 -20 -20 -20 -20 -20 -20 -20 -20 -20 -20 -20 -20 -20 -20 -20 -20 -20 -20
-20 -20 -20 -20 -20 -19 -10 2 -5 -20 -20 -16 -7 -19 -20 -20 -20 -20 -20 -20 -20 -20 -20 -20 -20 -20 -20 -20 -20 -20 -20 -20 -20 -20 -20 -20 -20 -20

GFSNE_prec_radar_237.txt.gz
Reflectivity
-20 -20 -20 -20 -20 -20 -20 -20 24 17 -20 -20 -7 -3 -20 -20 -1 -20 3 7 24 7 26 36 28 25 39 33 26 21 17 20 37 27 30 32 28 16
-20 -20 -20 -20 -20 -20 -20 -6 20 24 23 -20 -20 -20 -20 -20 -14 -17 -20 -20 0 0 30 22 28 40 31 42 36 26 21 21 31 27 22 26 20 13
-20 -20 -20 -20 -20 -20 2 4 9 24 24 -20 -20 5 12 -20 -18 5 -20 -20 8 10 -12 32 18 24 35 42 36 34 34 30 34 35 23 24 19 15
-20 -20 -20 -20 -20 -2 1 -20 -3 -1 20 -2 -19 -12 6 -1 0 -4 -15 -6 -11 16 12 15 20 37 28 28 32 42 38 36 35 32 37 33 23 19
-20 -20 -20 -20 -20 -19 1 7 -20 -13 2 8 3 5 -6 -17 -1 -10 6 -20 -0 -16 9 13 10 13 10 28 32 24 30 32 41 34 37 36 32 25
-20 -20 -20 -20 -20 -4 -18 -7 -20 -5 -3 2 2 1 -16 -20 -7 5 6 2 5 -20 -20 -20 -12 -3 -6 27 27 35 28 31 38 39 35 36 28 23
-20 -20 -20 -20 -20 -20 -8 -14 -20 2 6 -7 -13 4 -20 6 -14 6 11 7 5 -7 -20 5 4 4 0 3 15 16 25 35 36 37 32 32 19 24
1 -16 -20 -20 -20 -20 -20 1 6 -1 -18 -20 -4 -17 -19 -20 -20 6 -13 -19 -20 -20 -7 -20 -20 -20 8 11 -13 6 22 29 33 35 33 28 21 29
-20 -8 -11 -6 0 4 4 -20 -20 8 14 8 -1 -20 -20 -20 -20 -8 -20 -20 -17 2 -7 -19 -20 -20 -20 -20 -20 -20 8 28 29 33 27 28 24 35
-20 -20 -7 -13 -11 -3 -7 -16 -16 -15 -10 -8 -2 -10 5 1 -12 2 -11 -20 -20 -8 -12 -14 -15 -15 -20 -20 -7 -20 8 24 26 29 31 28 31 39
-20 -20 -14 -10 -3 8 1 -12 -8 -15 11 30 29 21 18 6 1 4 -2 -20 -20 -17 0 1 -7 -20 -17 -13 -2 7 25 26 28 32 36 35 37 42
-10 -18 -20 -16 -14 7 1 -16 -11 -10 10 -5 -11 10 15 6 15 6 -12 -20 -12 -20 -20 -20 -11 -17 -20 7 19 15 27 30 27 34 32 36 41 37
-5 -20 -2 -3 -9 9 -13 -3 4 8 13 -5 -16 -6 -12 -14 -20 -20 -20 -16 1 -13 -19 -7 -7 -2 -0 1 18 28 29 35 34 32 40 37 38 34
-20 -0 -20 4 3 -4 -12 3 9 -2 -16 -11 -1 2 -19 -6 -20 -9 11 15 25 21 10 4 1 -19 -11 4 7 25 25 33 37 36 40 40 38 29
-16 -18 -4 5 -12 -20 -15 -15 -20 -2 -13 -20 -20 -4 -15 -20 -1 -1 -8 10 9 15 8 -3 -6 7 7 6 6 11 20 28 41 38 39 33 21 12
-20 -20 -5 5 -19 -18 -17 -20 -20 -10 -6 -18 -2 -3 -18 -4 3 11 8 5 2 1 -4 12 16 -5 8 17 13 9 4 20 27 30 21 18 11 -2
-11 -10 -5 1 1 -20 -20 -19 -20 -20 -3 -3 -2 -10 -17 0 3 10 7 -20 -17 -10 1 4 8 19 23 9 14 14 19 20 17 14 9 10 3 -20
-20 -11 6 8 0 -3 -20 -2 -6 -20 -20 -20 -4 -15 -15 -19 4 2 -16 -20 -18 1 2 3 6 3 8 19 21 17 22 21 22 10 4 -11 -11 -11
-20 -20 4 5 -2 -3 -14 -1 -0 -8 -20 -20 -5 -20 -19 -7 -3 -20 -20 -20 -3 -1 6 10 3 -3 -1 -4 17 21 11 4 4 9 8 8 5 -9
-20 -20 -13 -4 -1 -2 -4 -3 -1 -20 -20 -20 -2 -3 -6 -20 -20 -20 -20 -17 -5 5 4 7 8 6 7 -15 -0 13 17 8 3 -0 -6 -5 -7 -19
-13 -20 -20 -14 -1 -1 0 -2 -13 -12 -12 -20 -3 -3 -8 -20 -20 -20 -20 -11 -5 -5 -20 -10 -6 -3 8 11 11 8 8 11 6 -15 -20 -20 -20 -20
-20 -20 -20 -20 -20 -10 0 -1 -2 -4 -7 -20 -3 -5 -13 -20 -20 -20 -16 -18 -17 -20 -20 -20 -20 -20 -0 -5 0 -16 -15 -20 -20 -20 -20 -20 -20 -17
-18 -20 -10 -20 -4 -20 -5 -2 -6 -20 -13 -20 -20 -20 -20 -20 -20 -20 -20 -20 -20 -20 -20 -20 -20 -20 -20 -20 -20 -8 -20 -20 -20 -20 -20 -20 -20 -20

GFSNE_prec_radar_243.txt.gz
Reflectivity
-20 -20 -20 -20 -20 -20 -20 -20 -20 -8 -20 -20 -20 -20 -20 -20 -20 13 -20 -20 -20 -20 -20 -20 -20 -20 -20 -20 -11 -3 -4 23 34 36 41 15 33 31
-20 -20 -20 -20 -20 -20 -20 -20 -11 -4 -5 -20 -20 -20 -20 -20 -20 -20 -6 -10 -20 -20 -20 -20 -20 -20 -20 -20 -20 -13 3 14 25 41 39 27 32 37
-20 -20 -20 -20 -20 -20 -20 -20 -12 3 12 -20 -20 -20 -20 -20 -20 -20 -20 -20 -20 -20 -20 -20 -20 -20 -20 -20 -20 4 30 11 11 30 39 34 32 33
-20 -20 -20 -20 -20 -20 -20 -20 -20 -13 8 -1 -20 -20 -11 -20 -5 8 -16 -20 -20 -20 -20 -20 -20 -20 -20 -20 -20 -20 9 -2 26 18 40 39 33 38
-20 -20 -20 -20 -20 -20 -20 -20 -20 -16 -9 -15 -18 -18 -18 -3 -5 -16 -6 8 15 6 -19 -20 -20 -20 -20 -20 -20 -0 5 0 27 29 2 40 34 39
-20 -20 -20 -20 -20 -20 -20 -20 -14 -4 5 -5 -8 5 6 3 2 0 10 15 11 21 -3 -20 -20 2 -20 -20 -20 -18 9 -1 15 34 22 41 35 39
-20 -20 -20 -20 -20 -20 -19 -17 -19 3 -6 6 7 9 9 11 11 9 11 -20 -20 10 4 8 -0 -20 -17 8 -19 -20 4 -15 -2 28 24 38 34 38
-20 -20 -20 -14 -20 -20 -19 -1 -4 3 4 9 -19 -18 -20 3 -15 11 13 6 1 2 12 3 9 -15 2 4 -20 -20 -20 -20 -15 18 13 27 34 39
-20 -20 -20 -20 -12 -16 -8 7 4 3 -4 -4 -12 6 -7 -14 7 10 18 26 23 5 18 -2 0 3 -0 -20 -20 -20 -20 -20 -14 12 21 36 38 40
-20 -20 -20 -20 -20 -15 -20 -9 -2 -5 1 -20 -2 -15 -16 -10 -6 22 25 22 19 -5 -15 -12 -18 -20 -2 -20 -20 -20 -16 -20 -7 22 25 41 40 38
-20 -20 -20 -18 -17 -15 -20 -2 -3 -1 5 10 -1 -20 4 -8 -17 13 7 18 11 -12 -1 -7 -1 -20 -2 -12 -15 -5 -1 10 0 12 23 21 28 29
-20 -20 -20 -20 -20 -20 -13 2 -20 -15 -12 -19 -20 3 11 12 8 -11 5 15 18 -4 -4 -1 2 -1 -1 -20 -20 -15 -7 -7 6 12 25 26 29 32
-20 -10 -16 -16 -20 -20 -20 -3 -5 5 -19 -20 -20 -20 -20 -20 -3 4 -0 -5 11 11 4 18 10 -5 5 -20 -14 10 11 2 13 23 25 29 38 33
-11 -2 0 -20 -20 -20 -20 5 1 -5 -14 3 -20 3 3 -4 -10 2 -13 -8 10 8 -6 22 18 3 14 -19 -13 8 17 23 12 19 29 35 38 33
-18 -5 -20 -20 -20 -20 -5 7 8 -8 -5 -18 -20 -16 -12 1 -15 -8 9 15 -5 6 13 18 13 -2 13 -20 -1 16 14 23 29 18 11 18 25 29
-7 -7 -18 -20 -20 5 0 3 -20 1 4 1 -3 -20 7 9 9 -1 3 -2 -3 -9 13 18 20 1 -1 6 3 13 29 20 25 21 21 23 28 33
-12 -17 -20 -10 3 0 -20 -2 -20 -7 -3 2 -3 -4 8 8 10 -1 4 11 9 6 7 15 21 1 12 2 9 7 13 19 29 31 27 23 33 34
-19 -19 -20 -20 3 6 -2 -3 -18 10 -8 -20 -13 -6 6 7 5 8 10 8 6 7 6 13 15 10 -0 16 10 14 18 17 19 21 18 4 -0 12
-20 -10 2 -20 2 1 -3 9 3 11 7 8 6 6 7 7 5 10 10 8 8 8 9 11 9 1 -2 4 20 28 11 16 16 20 17 15 9 8
-16 1 -10 -19 -20 -20 5 4 -1 7 3 4 8 7 8 6 9 11 8 11 8 8 6 23 17 9 -7 -2 10 22 29 12 9 3 7 6 10 8
-20 -9 -14 -16 -20 -20 -1 -0 6 4 10 -3 3 3 4 7 8 7 5 8 3 1 -6 -0 7 -3 -7 -20 -13 1 19 15 13 16 13 8 -7 -18
1 0 3 -15 -4 -11 -3 -3 3 8 11 10 10 -2 0 8 4 6 11 10 3 -5 -5 -4 3 6 1 -20 -20 -20 -18 -9 -15 -14 -14 -20 -15 -16
2 -4 6 -7 -12 8 3 7 10 3 6 12 7 8 -6 10 7 11 -15 -20 1 2 -7 9 12 -10 -2 -14 -10 -20 -20 -15 -20 -20 -20 -20 -20 -20

GFSNE_prec_radar_246.txt.gz
Reflectivity
-20 -20 -20 -20 -20 -20 -20 -20 -20 -6 -20 -20 -20 -20 -20 -20 -20 -20 -20 -20 -20 -20 -20 -20 -20 -20 -20 -20 -20 -20 -20 -20 -13 6 0 13 27 38
-20 -20 -20 -20 -20 -20 -20 -20 -20 -20 -20 -20 -20 -20 -20 -20 -20 -20 -20 -20 -20 -20 -20 -4 -20 -20 -20 -20 -20 -20 -20 -20 -20 -4 -7 6 27 20
-20 -20 -20 -20 -20 -20 -20 -20 -20 -20 -15 -20 -20 -20 -20 -20 -20 -20 -20 -20 -20 -20 -20 5 9 -18 -20 -20 -20 -20 -20 -20 -20 -20 -14 5 34 32
-20 -20 -20 -20 -20 -20 -20 -20 -20 -20 -20 -1 -20 -20 -20 -20 -20 -20 -20 -20 -20 -20 -20 17 -10 21 -20 -20 -20 -20 -20 -20 -20 -20 -13 10 20 42
-20 -20 -20 -20 -20 -20 -20 -20 -20 -20 -20 -20 -20 -20 -7 -4 -17 -10 -20 -20 -20 -4 -20 -19 29 29 -19 -17 -0 -20 -20 -20 -20 -12 -5 23 34 33
-20 -20 -20 -20 -20 -20 -20 -20 -20 -20 -16 -19 -20 -20 -20 -20 -10 0 -20 -15 -19 -15 -20 -20 -7 19 -18 -20 -20 -20 -20 -20 -19 -16 -16 18 22 28
-20 -20 -20 -20 -20 -20 -20 -20 -20 -20 -1 -20 -20 -20 -20 -20 -16 -18 -7 -18 -19 -0 -17 3 11 -6 0 -20 -16 -13 -20 -20 -20 -20 -20 27 19 31
-20 -20 -20 -20 -20 -20 9 12 6 -14 -20 -17 -19 -19 -20 -16 -11 -7 -6 1 7 1 14 -9 -7 -20 -20 -20 2 -20 -20 -20 -20 -20 -6 17 30 31
-20 -20 -20 -20 -20 -20 -0 -19 -20 -20 -7 1 -15 -20 -19 -15 -8 -5 -5 4 8 -6 16 12 -20 -20 -20 -16 15 4 -19 10 6 2 -18 13 26 25
-20 -20 -20 -20 -20 -20 -20 -20 -20 -20 -18 -14 -13 -12 -13 -5 -2 -0 11 9 10 15 10 10 -14 -20 -20 -20 3 -20 -12 5 -13 10 -8 8 27 37
-20 -20 -20 -20 -20 8 -18 -20 -20 -20 3 9 10 9 12 11 10 3 -4 7 -13 10 -2 9 18 -20 -20 -20 -20 -20 2 10 12 -5 -3 16 26 35
-20 -20 -20 -20 -20 -20 -20 -20 -20 -20 -17 -14 -20 6 7 8 14 6 2 11 -0 -4 13 13 7 5 -13 -10 -20 -20 -9 12 12 -3 8 16 35 35
-20 -20 -20 -20 -20 -20 -18 -10 -7 1 2 -14 -20 -16 -3 -20 -13 -20 18 18 0 -7 -18 22 2 -1 16 -20 -15 -19 11 12 12 17 18 26 41 42
-20 -20 -20 2 -20 -20 -9 10 -9 2 -20 -16 -14 1 -20 -20 -20 -19 4 -2 -2 7 -4 13 8 17 13 -20 -20 -18 0 16 17 6 21 32 33 23
-20 -20 -19 -20 -20 -20 8 10 8 -3 -14 -9 -20 -20 -20 -20 -19 -10 -20 -7 -16 9 14 1 7 17 1 -20 -8 -18 -13 13 12 7 18 25 27 36
-20 -20 -20 -3 6 -7 -1 -3 -20 -12 -11 3 -11 -20 -20 -20 -20 -20 -20 -17 -5 -16 16 9 25 6 -20 -20 -20 -20 -18 11 19 24 15 15 21 24
-20 -20 -20 -20 -9 -20 -20 -20 -20 -20 5 -9 -20 -20 -20 -20 -20 -20 -20 -10 -20 -16 -18 -10 7 -14 -3 -18 -20 -14 -6 10 19 24 15 19 25 27
-20 -20 -20 -20 -2 6 -15 -20 -19 -3 -20 -20 -9 1 -20 -20 -20 -12 -16 -20 -20 -20 -16 3 -20 -20 -20 -17 9 -19 -11 11 12 15 24 21 25 29
-20 -20 -20 -20 -20 -20 -20 -13 -19 -20 -2 -9 -4 0 -20 -20 -20 -14 -20 -20 -20 -20 -20 -16 -8 -20 -20 -10 12 24 -15 -17 3 17 19 12 1 17
-20 -20 -20 -20 -20 -18 -10 -7 -20 -20 -20 -19 -20 -16 -20 -20 -18 -20 -20 -20 -20 -20 -18 -4 -7 -20 -20 -20 0 21 15 14 13 17 18 17 13 11
-20 -20 -20 -20 -20 -20 -10 -1 -20 -20 -16 -20 -20 -20 -20 -20 -20 -20 -20 -20 -20 -20 -20 -19 -20 -20 -20 -20 -18 -0 22 21 21 17 16 3 -14 -17
-20 -11 -20 -20 -20 -15 -12 -17 2 -1 -7 -20 -20 -20 -20 -20 -18 -20 -12 -20 -20 -20 -20 -16 4 -19 -20 -20 -6 -8 -7 5 4 6 7 9 4 -6
-2 -19 -20 -19 -20 -20 3 -19 -19 -12 -20 -20 -20 -20 -20 -20 -9 -11 -20 -20 -20 -20 -20 -14 -5 -20 -20 -20 -20 -20 -20 -18 -20 -20 -20 -20 -20 -20

GFSNE_prec_radar_252.txt.gz
Reflectivity
-20 -20 -20 -20 -20 -20 -20 -20 -20 -20 -20 -20 -20 -20 -20 -20 -20 -20 -20 -20 -20 -20 -20 -20 -20 -20 -20 -20 -20 -11 -18 15 -20 -20 -20 -20 -20 -20
-20 -20 -20 -20 -20 -20 -20 -20 -20 -20 -20 -20 -20 -20 -20 -20 -20 -20 -20 -20 -20 -20 -20 -20 -20 -20 -20 -20 -20 -20 -0 -10 -8 -4 -20 -20 -18 -20
-20 -20 -20 -20 -20 -20 -20 -20 -20 -20 -20 -20 -20 -20 -20 -20 -20 -20 -20 -20 -20 -20 -20 -20 -20 -20 -20 -20 -20 -20 -16 21 -7 -8 -20 -20 -20 -20
8 -20 -20 -20 -20 -20 -20 -20 -20 -20 -20 -20 -20 -20 -20 -20 -20 -20 -20 -20 -20 -18 10 -19 9 9 -20 -20 4 9 16 6 32 6 -20 -20 -20 -20
2 -1 -20 -20 -20 -20 -20 -20 -20 -20 -20 -20 -20 -20 -20 -20 -20 -20 -20 -20 -20 8 6 -6 1 4 5 -20 -17 -14 -3 -20 -20 -19 -20 -20 -20 -20
22 -17 -20 -20 -20 -20 -20 -20 -20 -20 -20 -20 -20 -20 -20 -20 -20 -20 -20 -20 -20 -20 5 -10 0 -15 -15 10 13 6 14 10 9 -10 -7 10 3 -18
2 -20 -20 -20 -20 -20 -20 -20 -20 -20 -20 -20 -20 -20 -20 -20 -20 -20 -20 -20 -17 -20 -7 -16 -20 -20 -20 13 12 10 11 9 4 -19 -20 -7 -10 7
-4 -20 -20 -7 -20 -20 -20 -20 -20 -20 -20 -20 -20 -20 -20 -20 -17 -20 -19 -15 -20 -10 -16 -20 -13 -19 -20 -20 -3 7 -19 -20 -20 -20 -20 -8 9 3
20 2 -1 -6 -20 -20 -20 -20 -20 -20 -20 -18 -20 -20 -20 -13 -5 -15 -12 -5 -12 -18 -1 -20 -20 -20 -20 -20 -20 -20 -20 -20 -20 -12 3 6 3 -5
12 9 -2 -16 -20 -20 -20 -20 -20 -20 -20 -20 -20 -20 -17 -14 -15 -5 -0 -11 -15 -20 -20 -19 -20 -11 -20 -20 -20 -20 -20 -20 -20 -7 5 8 11 8
11 -0 -6 -20 -20 -20 -20 -20 -20 -20 -20 -20 -20 -17 -18 -19 -20 -10 -20 -17 -20 -20 -20 -14 -20 -20 -20 -20 -20 -20 -20 -16 15 7 11 11 13 13
1 -4 -17 -20 -20 -20 -20 -20 -20 -20 -20 -20 -20 -20 -20 -20 -20 -20 -8 -16 -20 -16 -20 13 -20 -14 -10 -20 -20 -20 -20 6 14 11 -12 -20 -4 -16
0 -17 -20 -20 -20 -20 -20 -20 -20 -20 -20 -20 -20 -20 -20 -20 -20 -20 -20 1 -18 -18 -5 19 -12 -19 -3 -17 -15 -20 -20 -19 2 10 10 -9 -9 10
-10 -20 -20 -20 -20 -20 -20 -20 -20 -20 -20 -20 -20 -20 -20 -20 -20 -20 -20 -20 -20 -13 -2 -5 2 -5 -4 -20 -20 -20 -20 -16 -2 4 23 14 11 21
-20 -20 -20 -20 -20 -20 -20 -20 -20 -20 -20 -20 -20 -20 -20 -20 -20 -20 -20 -20 -20 -20 -19 -16 -18 -20 -20 -20 -20 -18 -20 -20 9 19 20 15 29 27
-20 -20 -20 -20 -20 -20 -20 -20 -20 -20 -20 -20 -20 -20 -20 -20 -20 -20 -20 -20 -20 -20 -20 -15 -15 -20 -20 -20 -20 -19 -15 2 17 23 27 23 23 32
-20 -20 -20 -20 -20 -20 -20 -20 -20 -20 -20 -20 -20 -20 -20 -20 -20 -20 -20 -20 -20 -20 -20 -20 -20 -20 -20 -20 -20 -19 3 8 17 25 28 25 26 26
-20 -20 -20 -20 -20 -20 -20 -20 -20 -20 -20 -20 -20 -20 -20 -20 -20 -20 -20 -20 -20 -20 -20 -20 -20 -20 -20 -20 -10 -15 -14 12 13 16 26 27 31 31
-20 -20 -20 -20 -20 -20 -20 -20 -20 -20 -20 -20 -20 -20 -8 -14 -6 -20 -20 -20 -20 -20 -20 -20 -20 -20 -20 -20 -20 1 -17 2 14 7 15 24 25 30
-20 -20 -20 -20 -20 -20 -20 -20 -20 -20 -20 -20 -20 -20 -20 -4 -20 -20 -20 -20 -20 -20 -20 -20 -20 -20 -20 -20 -20 2 7 5 -3 7 15 22 26 29
-20 -20 -20 -20 -20 -20 -20 -20 -20 -20 -20 -20 -20 -20 -13 -15 -20 -20 -20 -20 -20 -20 -20 -20 -20 -20 -20 -20 -20 -20 7 16 6 2 13 14 16 21
-20 -20 -20 -20 -20 -20 -20 -20 -20 -20 -20 -20 -20 -20 -16 -14 -20 -20 -20 -20 -20 -20 -20 -20 -20 -20 -20 -20 -20 -20 -6 14 18 18 17 16 16 9
-20 -20 -20 -20 -11 -20 -20 -20 -20 -20 -20 -20 -20 -20 -16 -8 -20 -20 -20 -20 -20 -20 -20 -20 -20 -20 -20 -20 -20 -20 -13 -8 4 5 18 22 23 21